This is the latest recevied weather packets stored in our database for station/object OK1JRA-6. If no packets are shown the sender has not sent any weather packets the latest 10 day(s).
| Time | Temp. | Humidity | Pressure | Rain* | Wind** | Luminosity | Snow |
|---|---|---|---|---|---|---|---|
| 1778049631 | 15° C | 77% | 1007.9 hPa | 0 mm | - | - | - |
| 1778049325 | 14.44° C | 81% | 1007.9 hPa | 0 mm | - | - | - |
| 1778049018 | 13.89° C | 81% | 1007.9 hPa | 0 mm | - | - | - |
| 1778048712 | 13.89° C | 81% | 1007.9 hPa | 0 mm | - | - | - |
| 1778048406 | 13.89° C | 81% | 1007.8 hPa | 0 mm | - | - | - |
| 1778048100 | 13.33° C | 82% | 1007.8 hPa | 0 mm | - | - | - |
| 1778047794 | 13.33° C | 82% | 1007.8 hPa | 0 mm | - | - | - |
| 1778047487 | 13.33° C | 83% | 1007.8 hPa | 0 mm | - | - | - |
| 1778047181 | 13.33° C | 83% | 1007.8 hPa | 0 mm | - | - | - |
| 1778046875 | 12.78° C | 83% | 1007.7 hPa | 0 mm | - | - | - |
| 1778046569 | 12.78° C | 83% | 1007.6 hPa | 0 mm | - | - | - |
| 1778046263 | 12.78° C | 83% | 1007.5 hPa | 0 mm | - | - | - |
| 1778045957 | 12.78° C | 83% | 1007.4 hPa | 0 mm | - | - | - |
| 1778045344 | 12.22° C | 84% | 1007.6 hPa | 0 mm | - | - | - |
| 1778045038 | 12.22° C | 84% | 1007.7 hPa | 0 mm | - | - | - |
| 1778044732 | 12.22° C | 84% | 1007.7 hPa | 0 mm | - | - | - |
| 1778043507 | 11.11° C | 84% | 1007.9 hPa | 0 mm | - | - | - |
| 1778042895 | 10.56° C | 84% | 1007.8 hPa | 0 mm | - | - | - |
| 1778042589 | 10.56° C | 84% | 1007.8 hPa | 0 mm | - | - | - |
| 1778042283 | 10.56° C | 84% | 1007.8 hPa | 0 mm | - | - | - |
| 1778041977 | 10° C | 84% | 1007.7 hPa | 0 mm | - | - | - |
| 1778041671 | 10° C | 84% | 1007.7 hPa | 0 mm | - | - | - |
| 1778041364 | 10° C | 84% | 1007.5 hPa | 0 mm | - | - | - |
| 1778041058 | 10° C | 84% | 1007.5 hPa | 0 mm | - | - | - |
| 1778040752 | 9.44° C | 84% | 1007.5 hPa | 0 mm | - | - | - |
* Rain latest hour (hover to see other rain measurements)
** Current wind speed in m/s (hover to see current wind gust speed)